Hourly Weather Rwamagana

Today, 22 April, Thursday

Time Temperature Precipitation Wind Pressure Humidity
00:00 +15°C° 0.1 mm 0 mps 636 mmHg 97%
01:00 +14°C° 0.1 mm 0 mps 636 mmHg 98%
02:00 +14°C° 0 mm 0 mps 635 mmHg 98%
03:00 +14°C° 0.2 mm 0 mps 635 mmHg 98%
04:00 +14°C° 0.2 mm 0 mps 636 mmHg 98%
05:00 +15°C° 0.2 mm 1 mps 636 mmHg 98%
06:00 +16°C° 0 mm 1 mps 637 mmHg 96%
07:00 +18°C° 0 mm 1 mps 637 mmHg 95%
08:00 +19°C° 0 mm 1 mps 638 mmHg 93%
09:00 +20°C° 0.1 mm 1 mps 638 mmHg 87%
10:00 +22°C° 0.1 mm 1 mps 638 mmHg 81%
11:00 +23°C° 0.1 mm 1 mps 639 mmHg 75%
12:00 +23°C° 1.1 mm 1 mps 638 mmHg 78%
13:00 +23°C° 1.1 mm 2 mps 637 mmHg 81%
14:00 +23°C° 1.1 mm 2 mps 637 mmHg 84%
15:00 +22°C° 1 mm 1 mps 636 mmHg 88%
16:00 +21°C° 1 mm 1 mps 636 mmHg 91%
17:00 +20°C° 1 mm 1 mps 635 mmHg 95%
18:00 +19°C° 0.1 mm 1 mps 635 mmHg 96%
19:00 +18°C° 0.1 mm 1 mps 635 mmHg 96%
20:00 +18°C° 0.1 mm 1 mps 635 mmHg 97%
21:00 +18°C° 0 mm 1 mps 635 mmHg 97%
22:00 +15°C° 0 mm 0 mps 636 mmHg 96%
23:00 +15°C° 0 mm 0 mps 636 mmHg 96%

Tomorrow, 23 April, Friday

Time Temperature Precipitation Wind Pressure Humidity
00:00 +15°C° 0.1 mm 0 mps 636 mmHg 96%
01:00 +15°C° 0.1 mm 0 mps 635 mmHg 96%
02:00 +14°C° 0.1 mm 0 mps 635 mmHg 96%
03:00 +14°C° 0 mm 0 mps 635 mmHg 96%
04:00 +14°C° 0 mm 0 mps 635 mmHg 96%
05:00 +14°C° 0 mm 0 mps 635 mmHg 96%
06:00 +15°C° 0 mm 0 mps 636 mmHg 94%
07:00 +17°C° 0 mm 0 mps 637 mmHg 92%
08:00 +18°C° 0 mm 0 mps 637 mmHg 90%
09:00 +19°C° 0.8 mm 0 mps 638 mmHg 86%
10:00 +20°C° 0.8 mm 0 mps 638 mmHg 83%
11:00 +24°C° 0.8 mm 1 mps 638 mmHg 80%
12:00 +23°C° 2 mm 1 mps 637 mmHg 84%
13:00 +22°C° 2 mm 1 mps 636 mmHg 88%
14:00 +21°C° 2 mm 1 mps 635 mmHg 92%
15:00 +20°C° 1.9 mm 1 mps 635 mmHg 94%
16:00 +19°C° 1.9 mm 1 mps 635 mmHg 96%
17:00 +19°C° 1.9 mm 1 mps 635 mmHg 98%
18:00 +18°C° 0.1 mm 1 mps 635 mmHg 97%
19:00 +18°C° 0.1 mm 1 mps 635 mmHg 97%
20:00 +16°C° 0.1 mm 0 mps 635 mmHg 97%
21:00 +16°C° 0 mm 0 mps 635 mmHg 97%
22:00 +16°C° 0 mm 0 mps 635 mmHg 97%
23:00 +15°C° 0 mm 0 mps 636 mmHg 97%

Day after tomorrow, 24 April, Saturday

Time Temperature Precipitation Wind Pressure Humidity
00:00 +15°C° 0 mm 0 mps 635 mmHg 97%
01:00 +15°C° 0 mm 0 mps 635 mmHg 97%
02:00 +15°C° 0 mm 0 mps 634 mmHg 97%
03:00 +14°C° 0 mm 0 mps 634 mmHg 97%
04:00 +14°C° 0 mm 0 mps 635 mmHg 97%
05:00 +14°C° 0 mm 0 mps 635 mmHg 97%
06:00 +15°C° 0 mm 0 mps 635 mmHg 95%
07:00 +16°C° 0 mm 0 mps 636 mmHg 93%
08:00 +17°C° 0 mm 0 mps 637 mmHg 92%
09:00 +21°C° 0.4 mm 1 mps 637 mmHg 85%
10:00 +23°C° 0.4 mm 1 mps 637 mmHg 78%
11:00 +25°C° 0.4 mm 1 mps 637 mmHg 71%
12:00 +25°C° 0.9 mm 1 mps 637 mmHg 73%
13:00 +25°C° 0.9 mm 1 mps 636 mmHg 75%
14:00 +25°C° 0.9 mm 1 mps 635 mmHg 76%
15:00 +22°C° 0.9 mm 0 mps 635 mmHg 80%
16:00 +21°C° 0.9 mm 0 mps 634 mmHg 84%
17:00 +20°C° 0.9 mm 0 mps 634 mmHg 88%
18:00 +19°C° 1.1 mm 0 mps 634 mmHg 90%
19:00 +18°C° 1.1 mm 0 mps 635 mmHg 92%
20:00 +17°C° 1.1 mm 0 mps 635 mmHg 94%
21:00 +17°C° 1.1 mm 0 mps 635 mmHg 94%
22:00 +16°C° 1.1 mm 0 mps 635 mmHg 95%
23:00 +16°C° 1.1 mm 0 mps 635 mmHg 95%

25 April, Sunday

Time Temperature Precipitation Wind Pressure Humidity
00:00 +16°C° 0.7 mm 0 mps 635 mmHg 96%
01:00 +16°C° 0.7 mm 0 mps 635 mmHg 96%
02:00 +18°C° 0.7 mm 1 mps 635 mmHg 96%
03:00 +16°C° 0.1 mm 1 mps 635 mmHg 96%
04:00 +16°C° 0.1 mm 1 mps 635 mmHg 96%
05:00 +16°C° 0.1 mm 1 mps 635 mmHg 96%
06:00 +18°C° 0 mm 1 mps 636 mmHg 94%
07:00 +17°C° 0 mm 0 mps 636 mmHg 93%
08:00 +18°C° 0 mm 0 mps 637 mmHg 91%
09:00 +22°C° 0.5 mm 1 mps 637 mmHg 85%
10:00 +23°C° 0.5 mm 1 mps 638 mmHg 79%
11:00 +24°C° 0.5 mm 1 mps 638 mmHg 72%
12:00 +24°C° 1.1 mm 1 mps 637 mmHg 75%
13:00 +24°C° 1.1 mm 1 mps 636 mmHg 77%
14:00 +24°C° 1.1 mm 1 mps 635 mmHg 80%
15:00 +23°C° 0.8 mm 1 mps 635 mmHg 83%
16:00 +23°C° 0.8 mm 1 mps 635 mmHg 87%
17:00 +20°C° 0.8 mm 0 mps 635 mmHg 90%
18:00 +19°C° 0.3 mm 0 mps 635 mmHg 92%
19:00 +20°C° 0.3 mm 1 mps 635 mmHg 94%
20:00 +19°C° 0.3 mm 1 mps 635 mmHg 95%
21:00 +18°C° 0.4 mm 1 mps 635 mmHg 96%
22:00 +18°C° 0.4 mm 1 mps 636 mmHg 96%
23:00 +16°C° 0.4 mm 1 mps 636 mmHg 96%

26 April, Monday

Time Temperature Precipitation Wind Pressure Humidity
00:00 +16°C° 0.2 mm 1 mps 635 mmHg 96%
01:00 +16°C° 0.2 mm 1 mps 635 mmHg 96%
02:00 +16°C° 0.2 mm 1 mps 635 mmHg 96%
03:00 +16°C° 0.1 mm 1 mps 635 mmHg 96%
04:00 +15°C° 0.1 mm 0 mps 635 mmHg 96%
05:00 +15°C° 0.1 mm 0 mps 635 mmHg 96%
06:00 +16°C° 0.1 mm 0 mps 636 mmHg 95%
07:00 +16°C° 0.1 mm 0 mps 636 mmHg 94%
08:00 +17°C° 0.1 mm 0 mps 637 mmHg 94%
09:00 +18°C° 0.6 mm 0 mps 637 mmHg 90%
10:00 +19°C° 0.6 mm 0 mps 637 mmHg 86%
11:00 +21°C° 0.6 mm 0 mps 638 mmHg 82%
12:00 +23°C° 1.2 mm 1 mps 637 mmHg 83%
13:00 +23°C° 1.2 mm 1 mps 636 mmHg 84%
14:00 +23°C° 1.2 mm 1 mps 636 mmHg 85%
15:00 +22°C° 1.3 mm 1 mps 635 mmHg 88%
16:00 +21°C° 1.3 mm 1 mps 635 mmHg 91%
17:00 +20°C° 1.3 mm 1 mps 635 mmHg 95%
18:00 +19°C° 0.5 mm 1 mps 635 mmHg 95%
19:00 +19°C° 0.5 mm 1 mps 635 mmHg 96%
20:00 +16°C° 0.5 mm 0 mps 636 mmHg 97%
21:00 +16°C° 0.1 mm 0 mps 636 mmHg 97%
22:00 +18°C° 0.1 mm 1 mps 636 mmHg 97%
23:00 +18°C° 0.1 mm 1 mps 636 mmHg 96%

27 April, Tuesday

Time Temperature Precipitation Wind Pressure Humidity
00:00 +18°C° 0.2 mm 1 mps 636 mmHg 97%
01:00 +16°C° 0.2 mm 0 mps 635 mmHg 97%
02:00 +15°C° 0.2 mm 0 mps 635 mmHg 97%
03:00 +15°C° 0 mm 0 mps 635 mmHg 97%
04:00 +15°C° 0 mm 0 mps 635 mmHg 97%
05:00 +15°C° 0 mm 0 mps 635 mmHg 97%
06:00 +16°C° 0 mm 0 mps 636 mmHg 95%
07:00 +17°C° 0 mm 0 mps 636 mmHg 93%
08:00 +18°C° 0 mm 0 mps 637 mmHg 91%
09:00 +19°C° 0.7 mm 0 mps 637 mmHg 86%
10:00 +22°C° 0.7 mm 1 mps 637 mmHg 82%
11:00 +24°C° 0.7 mm 1 mps 637 mmHg 78%
12:00 +24°C° 1 mm 1 mps 637 mmHg 79%
13:00 +24°C° 1 mm 1 mps 636 mmHg 80%
14:00 +24°C° 1 mm 1 mps 636 mmHg 81%
15:00 +23°C° 1.5 mm 1 mps 635 mmHg 84%
16:00 +22°C° 1.5 mm 1 mps 635 mmHg 88%
17:00 +21°C° 1.5 mm 1 mps 635 mmHg 91%
18:00 +20°C° 0.8 mm 1 mps 635 mmHg 92%
19:00 +20°C° 0.8 mm 1 mps 635 mmHg 94%
20:00 +17°C° 0.8 mm 0 mps 636 mmHg 95%
21:00 +19°C° 0.5 mm 1 mps 636 mmHg 95%
22:00 +18°C° 0.5 mm 1 mps 636 mmHg 96%
23:00 +18°C° 0.5 mm 1 mps 636 mmHg 97%
Show more